Regional Weather Roundup
Issued by NWS Northern Indiana

Home | Current Version | Previous Version | Graphics & Text | Print | Product List | Glossary On
Versions: 1 2 3 4 5 6 7 8 9 10 11 12 13 14 15 16 17 18 19 20 21 22 23 24 25 26 27 28 29 30 31 32 33 34 35 36 37 38 39 40 41 42 43 44 45 46 47 48 49 50
629
ASUS43 KIWX 270210
RWRIWX

KIWX WEATHER ROUNDUP
NATIONAL WEATHER SERVICE NORTHERN INDIANA
1000 PM EDT WED JUL 26 2017

NOTE: "FAIR" INDICATES FEW OR NO CLOUDS BELOW 12,000 FEET WITH NO
SIGNIFICANT WEATHER AND/OR OBSTRUCTIONS TO VISIBILITY.

* THESE STATIONS ARE NOT UNDER NWS QUALITY CONTROL. THEY ALSO MAY NOT
  REPORT WEATHER SUCH AS PRECIPITATION OR FOG.

INZ001>027-270300-
NORTHERN INDIANA

CITY           SKY/WX    TMP DP  RH WIND       PRES   REMARKS
GARY*          CLOUDY    79  72  78 SE3       29.99R
VALPARAISO     MOCLDY    77  72  84 S3        30.01R
MICHIGAN CITY* PTCLDY    73  70  88 CALM      30.00R
LAPORTE*       CLOUDY    74  71  89 CALM      30.01R
KNOX*          CLOUDY    73  72  94 CALM      30.00R
SOUTH BEND     PTCLDY    77  67  71 S6        30.01F
GOSHEN         CLOUDY    75  67  76 SE3       30.02S
MONTICELLO*    CLOUDY    76  72  88 CALM      29.98F
LOGANSPORT*    MOCLDY    72  70  94 E6        30.01F
ROCHESTER*     CLOUDY    75  70  83 E3        30.02S
WARSAW*        CLOUDY    72  68  88 CALM      30.03R
AUBURN*        CLOUDY    70  66  88 CALM      30.04S
FORT WAYNE     CLOUDY    74  67  78 SE3       30.03S
HUNTINGTON*    MOCLDY    72  69  92 CALM      30.03R
PERU/GRISSOM   CLOUDY    75  72  89 E3        30.00F
MARION*        MOCLDY    72  66  83 E3        30.03S

$$
INZ028>050-270300-
CENTRAL INDIANA

CITY           SKY/WX    TMP DP  RH WIND       PRES   REMARKS
LAFAYETTE      CLOUDY    76  72  87 CALM      29.98S
KOKOMO*        CLOUDY    74  70  87 E6        30.02S
MUNCIE*        CLOUDY    77  69  76 SE3       30.03S
INDIANAPOLIS   MOCLDY    79  71  76 SE5       30.00F

$$
MIZ043>046-050>051-056>058-064>065-071>073-077>080-270300-
SOUTHWEST LOWER MICHIGAN

CITY           SKY/WX    TMP DP  RH WIND       PRES   REMARKS
BATTLE CREEK   CLOUDY    76  66  71 SE6       30.02F
BENTON HARBOR  MOCLDY    76  66  71 SE3       29.99F
COLDWATER*     CLOUDY    71  71  97 SE3       30.04R
HILLSDALE*     CLOUDY    70  63  78 SE5       30.05R
HOLLAND        CLOUDY    75  66  73 CALM      29.99F
GRAND RAPIDS   CLOUDY    75  67  76 S3        30.00F
KALAMAZOO      CLOUDY    76  64  66 CALM      30.02S
STURGIS*       CLOUDY    74  66  75 MISG      30.02S
THREE RIVERS*  FAIR      75  66  75 S3        30.03S

$$
OHZ001>008-015>018-024>025-270300-
NORTHWEST OHIO

CITY           SKY/WX    TMP DP  RH WIND       PRES   REMARKS
WAUSEON*         N/A     70  68  94 CALM      30.04S
DEFIANCE       CLOUDY    74  62  66 SE3       30.04R
FINDLAY        CLOUDY    74  63  68 E5        30.04R
TOLEDO EXPRESS MOCLDY    71  66  84 CALM      30.04R
TOLEDO METCALF CLOUDY    74  66  76 S3        30.06R
LIMA           CLOUDY    72  65  78 SE6       30.05S

$$
AND FOR LAKE MICHIGAN COASTAL AND OPEN LAKE BUOY OBSERVATIONS

STATION/POSITION TEMP    WIND        PRES    VSBY  WAVE
                 AIR SEA DIR/SP/G                  HT/PER
                 (F)     (DEG/KT/KT) (MB)    (MI)  (FT/S)
CALUMET HARBOR    80     140/  4/  7 1015.0R
MICHIGAN CITY     78     160/  6/  7   N/A
BURNS HARBOR      79     180/  6/ 11 1015.9
SAINT JOSEPH      77      CALM  /  2 1015.9
SOUTH LAKE BUOY   73 70  130/  8/  8 1014.8F         1
4 MI NW BRIDGMAN  76 75  190/  4/  6 1015.0          0
MICHIGAN CITY     76 75  170/  4/  6   N/A           0

$$
&&




USA.gov is the U.S. government's official web portal to all federal, state and local government web resources and services.